| time (UTC) | temp C | wind direction | speed KPH | gust KPH | rain 1hr cm | rain 24hr cm | rain mn cm | humidity % | barometer mb |
| 20260507173817 | 16 | 104 | 4.8 | 9.7 | 0.00 | 0.00 | 0.00 | 60 | 984.9 |
| 20260507170817 | 16 | 58 | 3.2 | 9.7 | 0.00 | 0.00 | 0.00 | 53 | 985.2 |
| 20260507163817 | 16 | 38 | 3.2 | 8.0 | 0.00 | 0.00 | 0.00 | 55 | 985.3 |
| 20260507160817 | 16 | 41 | 3.2 | 6.4 | 0.00 | 0.00 | 0.00 | 56 | 985.3 |
| 20260507153817 | 16 | 67 | 1.6 | 4.8 | 0.00 | 0.00 | 0.00 | 56 | 985.4 |
| 20260507150817 | 16 | 108 | 1.6 | 3.2 | 0.00 | 0.00 | 0.00 | 55 | 985.5 |
| 20260507143817 | 16 | 90 | 0.0 | 3.2 | 0.00 | 0.00 | 0.00 | 55 | 985.6 |
| 20260507140817 | 16 | 360 | 1.6 | 3.2 | 0.00 | 0.00 | 0.00 | 56 | 985.6 |
| 20260507133817 | 16 | 360 | 1.6 | 3.2 | 0.00 | 0.00 | 0.00 | 56 | 985.6 |
| 20260507130817 | 16 | 319 | 3.2 | 4.8 | 0.00 | 0.00 | 0.00 | 60 | 986.2 |
| 20260507123817 | 16 | 333 | 3.2 | 4.8 | 0.00 | 0.00 | 0.00 | 60 | 986.3 |
| 20260507120817 | 16 | 355 | 3.2 | 4.8 | 0.00 | 0.00 | 0.00 | 63 | 986.5 |
| 20260507113817 | 16 | 360 | 3.2 | 4.8 | 0.00 | 0.00 | 0.00 | 63 | 986.6 |
| 20260507110817 | 15 | 18 | 3.2 | 4.8 | 0.00 | 0.00 | 0.00 | 65 | 986.8 |
| 20260507103817 | 15 | 24 | 3.2 | 4.8 | 0.00 | 0.00 | 0.00 | 66 | 986.8 |
| 20260507100817 | 13 | 18 | 1.6 | 8.0 | 0.00 | 0.00 | 0.00 | 71 | 987.1 |
| 20260507093817 | 13 | 6 | 3.2 | 8.0 | 0.00 | 0.00 | 0.00 | 73 | 987.1 |
| 20260507092218 | 13 | 355 | 3.2 | 6.4 | 0.00 | 0.00 | 0.00 | 76 | 987.0 |
| 20260507090617 | 12 | 355 | 3.2 | 6.4 | 0.00 | 0.00 | 0.00 | 78 | 986.9 |
| 20260507085017 | 12 | 360 | 3.2 | 6.4 | 0.00 | 0.00 | 0.00 | 80 | 986.8 |
| 20260507083417 | 12 | 6 | 3.2 | 6.4 | 0.00 | 0.00 | 0.00 | 84 | 986.5 |
| 20260507082617 | 12 | 6 | 3.2 | 6.4 | 0.00 | 0.00 | 0.00 | 84 | 986.5 |
| 20260507081817 | 12 | 6 | 3.2 | 6.4 | 0.00 | 0.00 | 0.00 | 84 | 986.5 |
| 20260507081017 | 11 | 7 | 1.6 | 6.4 | 0.00 | 0.00 | 0.00 | 86 | 986.4 |
| 20260507080217 | 11 | 7 | 1.6 | 6.4 | 0.00 | 0.00 | 0.00 | 86 | 986.4 |
| 20260507075817 | 11 | 360 | 1.6 | 6.4 | 0.00 | 0.00 | 0.00 | 88 | 986.4 |
| 20260507075417 | 11 | 360 | 1.6 | 6.4 | 0.00 | 0.00 | 0.00 | 88 | 986.4 |
| 20260507075017 | 11 | 360 | 1.6 | 6.4 | 0.00 | 0.00 | 0.00 | 88 | 986.4 |
| 20260507074617 | 11 | 360 | 1.6 | 6.4 | 0.00 | 0.00 | 0.00 | 88 | 986.4 |
| 20260507074417 | 11 | 360 | 1.6 | 6.4 | 0.00 | 0.00 | 0.00 | 88 | 986.4 |
| 20260507074217 | 11 | 360 | 1.6 | 6.4 | 0.00 | 0.00 | 0.00 | 88 | 986.4 |
| 20260507074017 | 11 | 360 | 1.6 | 6.4 | 0.00 | 0.00 | 0.00 | 88 | 986.4 |
| 20260507073817 | 11 | 360 | 1.6 | 6.4 | 0.00 | 0.00 | 0.00 | 88 | 986.4 |
| 20260507073717 | 11 | 360 | 1.6 | 6.4 | 0.00 | 0.00 | 0.00 | 88 | 986.4 |
| 20260507073617 | 11 | 360 | 1.6 | 6.4 | 0.00 | 0.00 | 0.00 | 88 | 986.4 |
| 20260507073517 | 11 | 360 | 1.6 | 6.4 | 0.00 | 0.00 | 0.00 | 88 | 986.4 |
| 20260506190817 | 11 | 300 | 4.8 | 9.7 | 0.23 | 0.00 | 0.23 | 89 | 982.9 |
| 20260506183817 | 12 | 298 | 4.8 | 9.7 | 0.23 | 0.00 | 0.23 | 88 | 982.4 |
| 20260506180817 | 12 | 306 | 6.4 | 12.9 | 0.23 | 0.00 | 0.23 | 85 | 982.0 |